Wind_Speed
10 10 11 12 12 13 12 11 11 11 11 10 10 10 10 9 9 9 10 10 10 10 9 7 6 6 5 5 4 3 2 3 5 7 8 10 10 11 11 11 11 10 10 10 10 11 11 11 11
8 8 9 10 11 11 10 10 10 9 9 9 9 9 9 9 8 8 8 8 9 8 8 7 6 5 4 3 3 2 1 2 3 4 6 7 8 9 10 11 11 11 10 10 11 11 12 12 12
6 6 8 9 10 9 9 8 8 8 8 8 8 8 8 8 8 8 7 7 7 6 6 6 5 5 4 3 2 1 0 1 2 3 4 5 6 7 8 9 10 10 11 11 12 12 13 14 14
4 5 7 8 9 9 8 7 7 6 6 6 7 7 7 7 7 7 7 7 6 6 5 5 5 4 4 3 3 3 3 3 3 4 5 6 6 7 8 9 9 10 11 11 12 13 14 14 15
2 4 6 7 9 9 8 7 6 5 5 5 5 5 6 6 6 6 7 7 6 6 5 5 4 4 5 5 5 5 5 6 6 6 7 8 8 9 9 10 10 11 12 12 13 13 14 15 15
2 4 6 8 9 9 9 8 6 5 4 4 4 4 5 5 5 5 5 5 5 5 5 5 5 5 5 6 7 7 8 8 9 9 10 10 11 11 12 12 13 13 14 14 14 15 16 16 17
5 6 8 9 10 11 10 9 7 5 4 3 3 5 5 6 6 6 6 6 6 6 6 6 6 6 7 8 9 9 10 11 11 12 12 13 13 14 14 14 15 15 16 17 17 18 18 18 18
8 10 11 12 12 12 12 10 8 6 5 5 5 6 7 7 7 8 8 8 8 9 9 10 10 10 10 10 11 12 12 13 14 15 15 16 16 17 17 17 17 18 18 19 19 20 21 21 21
12 13 14 15 15 14 13 12 11 9 7 7 7 7 8 8 9 9 10 10 10 11 12 12 13 13 13 14 14 14 15 15 16 17 18 19 19 20 20 21 21 21 21 22 22 22 23 23 24
15 17 18 18 17 16 15 13 12 11 10 9 9 9 10 10 11 11 12 13 13 13 14 14 15 15 16 17 17 17 18 18 19 19 20 21 22 22 23 24 24 25 25 25 26 26 26 26 26
19 20 20 20 19 18 16 15 14 13 13 12 12 12 12 13 13 13 14 14 15 15 16 16 17 17 18 18 19 20 20 21 21 22 22 23 24 24 25 26 27 27 28 29 29 30 30 30 30
21 22 22 21 20 19 17 16 15 15 15 15 15 14 14 15 15 15 15 15 16 16 17 18 18 18 19 19 20 21 21 22 23 24 25 26 27 27 28 29 29 30 31 31 32 33 33 34 34
24 24 23 22 21 20 19 18 17 17 17 17 18 17 17 17 16 16 17 17 17 17 17 18 19 19 20 20 21 22 22 23 24 25 26 28 29 30 31 32 32 33 34 34 35 35 36 37 38
26 26 25 24 23 21 21 21 20 19 19 19 19 19 19 19 18 18 18 18 18 18 18 18 19 19 20 21 22 22 23 24 25 27 28 29 31 32 33 34 36 37 37 38 38 39 39 40 41
29 28 27 26 25 24 24 23 22 22 21 21 21 21 21 20 19 19 19 19 19 19 19 19 20 20 21 21 22 23 24 25 26 28 29 31 32 34 35 37 38 39 41 42 43 43 44 44 45
30 29 28 27 27 26 26 25 25 24 23 23 23 23 22 22 21 21 20 20 20 20 20 20 20 20 21 22 23 25 25 26 28 29 30 32 33 35 37 38 40 42 43 45 46 47 48 48 49
32 31 28 28 28 28 28 27 27 26 25 25 25 25 25 24 23 23 22 22 22 21 21 21 21 22 23 24 25 27 28 29 30 32 33 35 36 38 40 41 43 44 46 48 49 50 51 51 52
33 31 29 29 29 30 30 29 29 28 27 27 27 27 27 26 25 25 24 23 22 22 22 23 23 24 26 27 28 30 31 33 34 35 37 39 40 42 43 45 46 48 49 51 52 53 54 55 56
33 32 30 30 32 32 32 31 31 30 29 29 29 29 28 27 27 26 25 24 24 24 24 25 26 27 28 30 31 33 35 36 38 39 41 43 44 46 47 49 50 52 54 55 56 57 58 59 60
34 33 31 33 35 35 35 33 32 31 31 32 31 30 29 28 27 26 26 26 26 26 27 28 29 31 32 33 35 36 38 40 42 43 45 47 49 50 52 54 55 57 58 60 61 61 62 63 64
36 35 35 38 38 38 38 37 33 33 33 33 32 31 30 28 27 27 27 28 28 29 30 32 33 34 36 37 39 40 42 43 45 47 49 51 53 55 57 59 60 61 62 63 64 65 66 67 67
39 37 39 40 41 41 41 41 34 32 33 32 31 31 30 29 29 29 29 30 31 32 34 35 37 38 40 41 42 44 45 47 49 50 53 55 57 59 61 63 64 66 66 67 68 69 69 70 71
42 41 42 43 44 45 43 43 38 32 32 32 31 31 30 30 31 31 32 33 34 36 37 39 40 42 43 45 46 48 49 51 53 55 57 59 61 63 65 66 68 69 70 71 72 73 73 74 75
45 45 45 46 47 48 42 42 42 33 30 31 31 31 32 33 33 34 35 36 38 39 41 42 44 45 47 48 50 51 53 54 56 59 61 63 64 66 68 70 71 73 73 74 75 76 77 78 78
46 46 47 48 48 48 42 42 41 35 32 31 31 33 34 35 35 36 38 40 41 43 44 46 47 49 50 51 53 54 56 58 61 63 65 66 68 70 72 74 75 76 77 78 79 79 80 80 81
47 47 47 47 48 46 44 43 39 36 33 32 33 35 36 37 38 40 41 43 45 46 48 49 51 52 54 55 57 58 60 63 65 67 69 70 72 74 76 77 77 78 79 80 81 81 82 82 83
47 46 43 45 46 46 45 42 39 36 35 36 37 38 38 39 41 43 45 47 48 50 51 52 54 56 57 59 61 63 65 67 68 71 73 74 76 77 78 79 80 80 80 81 81 81 82 82 83
45 43 43 44 45 45 45 42 40 38 39 40 41 41 42 43 45 47 49 51 52 53 54 56 58 59 61 63 64 66 68 70 72 74 75 77 78 79 80 81 81 81 81 81 81 81 81 82 82
42 43 43 44 45 46 45 44 44 45 45 44 44 44 46 48 50 52 53 55 55 56 58 59 61 62 64 65 67 70 72 73 75 77 78 79 81 81 81 81 81 81 81 81 81 81 82 82 83
45 45 45 45 45 45 47 49 50 49 49 48 48 49 50 52 54 55 56 57 58 59 60 62 63 65 66 68 70 72 74 76 77 79 80 81 81 82 82 82 82 82 82 82 83 83 84 84 85
Wind_Direction
84 72 62 55 51 51 53 51 48 49 51 54 58 60 61 62 62 62 61 61 60 57 56 56 59 66 73 80 90 109 152 201 222 232 237 240 242 244 245 248 250 252 254 257 261 264 265 266 265
84 69 57 48 45 43 45 44 43 44 46 48 52 54 54 56 56 55 57 56 54 52 49 47 47 49 54 63 73 89 131 176 202 219 230 237 241 243 246 247 249 251 254 257 259 263 267 270 271
81 59 45 38 35 33 34 34 35 36 39 40 43 46 46 45 45 45 47 47 45 42 39 35 31 30 30 28 23 9 254 223 223 228 234 239 242 245 248 249 251 252 254 256 259 263 266 270 271
69 45 33 25 20 19 20 23 25 28 30 30 30 32 33 34 35 34 33 32 30 26 21 16 10 3 355 346 336 317 289 272 262 256 254 254 254 254 255 256 257 258 258 259 261 263 266 269 270
48 24 15 9 4 2 3 7 10 14 17 18 14 10 13 16 17 19 20 20 18 13 6 357 347 338 330 322 313 305 299 290 281 273 268 266 266 265 265 266 265 264 264 264 264 264 266 267 268
338 345 346 347 346 345 346 347 349 352 353 355 349 338 341 344 346 349 352 353 352 349 345 337 327 317 309 303 298 295 292 289 286 283 280 277 274 272 271 271 271 271 270 270 270 270 270 270 270
303 316 324 329 330 330 330 328 327 327 322 317 313 308 309 313 315 316 317 316 313 311 309 308 306 302 296 292 288 285 283 282 282 281 281 280 279 278 277 276 275 274 274 273 273 273 273 273 273
295 305 311 316 317 318 317 313 308 305 299 294 292 292 295 296 298 300 301 301 299 296 294 294 295 294 293 291 288 286 284 282 280 279 279 278 278 278 278 278 278 277 277 276 275 274 274 273 273
291 298 303 306 308 308 307 301 295 291 287 284 285 286 287 286 287 289 291 291 290 289 289 289 289 290 290 291 291 290 289 287 285 283 281 280 279 279 278 278 278 278 278 277 276 276 275 274 273
287 293 297 299 300 299 296 291 286 283 282 279 278 281 283 283 282 282 283 284 284 284 284 285 286 287 288 289 290 291 291 291 290 289 287 286 284 282 280 279 279 278 278 277 276 275 275 275 274
283 289 292 294 294 292 288 283 279 277 278 277 275 277 279 279 279 279 281 281 281 280 281 281 283 284 286 287 288 289 290 291 291 291 290 290 289 287 286 284 282 281 280 279 278 277 276 275 275
281 285 288 290 290 287 282 278 275 275 275 277 276 276 276 276 277 278 280 281 281 281 280 280 280 282 284 285 286 288 289 290 290 290 290 290 289 288 287 286 285 283 282 281 280 279 278 277 276
280 283 285 285 285 282 279 276 275 274 274 275 277 278 278 278 278 279 280 281 281 281 281 281 281 281 282 283 284 285 286 287 287 287 288 287 287 287 286 286 285 284 283 282 281 280 279 279 277
279 281 282 281 280 278 277 276 276 274 274 274 276 277 278 278 278 278 279 280 280 280 279 280 280 280 280 281 282 283 284 284 285 285 285 285 286 285 285 285 284 284 283 282 281 280 279 279 278
277 279 278 277 277 277 276 276 276 275 275 274 275 276 276 276 276 277 278 278 278 278 278 279 279 279 280 281 282 282 283 284 284 284 284 284 284 284 284 284 283 283 283 282 281 280 279 278 277
275 275 274 274 275 275 274 275 275 275 275 275 275 275 275 274 274 275 276 277 277 278 278 279 280 281 281 282 282 283 283 284 284 284 284 284 284 284 284 283 283 282 281 281 280 280 279 278 277
271 270 270 271 272 271 271 272 273 274 274 275 274 274 274 274 274 274 275 276 277 278 279 280 281 281 282 283 285 286 286 286 286 286 285 285 284 284 284 283 282 282 281 280 279 278 278 277 276
268 269 269 269 267 267 268 269 270 271 273 273 273 273 273 273 274 274 275 276 277 278 279 281 282 284 285 286 287 287 287 287 287 287 286 286 285 284 283 282 282 281 280 280 279 278 277 276 275
269 269 267 266 266 266 266 267 269 271 272 273 272 272 272 272 273 273 274 275 277 279 281 282 284 285 286 287 288 288 288 288 288 287 287 286 285 284 283 282 281 280 280 279 278 277 276 276 275
268 268 268 266 265 266 266 266 268 271 272 272 272 271 270 270 270 270 272 274 277 279 282 284 285 286 286 287 287 287 287 287 286 286 286 285 284 283 282 281 280 280 279 278 277 277 276 275 274
267 268 267 266 266 266 268 266 267 269 269 269 269 268 267 266 266 268 270 273 276 279 282 285 286 286 286 286 286 286 286 286 286 285 284 284 283 283 282 281 280 280 279 278 277 276 276 275 274
268 267 266 267 268 268 268 269 266 267 267 266 265 264 263 264 265 268 270 273 276 279 282 284 285 285 285 286 286 286 286 286 286 285 284 283 283 282 281 281 280 279 279 278 278 277 276 276 275
268 267 268 268 268 268 267 270 269 266 265 264 263 262 263 264 266 269 272 275 277 279 281 283 284 285 285 286 286 286 286 285 285 284 284 283 282 282 281 280 280 279 279 278 278 278 277 277 276
267 268 267 267 267 267 269 270 268 266 263 262 262 263 264 266 268 271 274 276 278 280 281 283 284 285 285 286 286 286 286 286 286 285 285 284 283 282 282 281 281 280 280 280 279 279 279 278 278
267 267 266 264 264 267 268 266 267 267 263 261 262 263 265 267 270 273 275 277 279 280 282 283 285 286 287 287 287 287 287 287 287 287 286 286 285 284 283 283 283 283 282 282 282 282 282 281 281
264 262 261 263 265 266 264 264 266 267 267 266 265 265 267 270 272 274 276 278 280 282 284 286 287 288 288 289 289 289 289 289 289 288 288 288 287 286 286 286 286 286 285 285 285 285 285 284 284
261 260 260 261 262 264 264 265 265 268 271 270 270 271 273 275 276 277 279 280 282 284 286 288 288 289 290 290 290 290 290 290 290 290 290 290 290 290 289 289 289 289 288 288 287 287 286 285 284
258 258 256 257 260 263 264 267 269 271 271 272 275 277 279 280 280 281 282 283 285 287 288 289 289 290 291 291 291 291 291 291 291 291 291 291 291 291 291 291 290 290 289 289 288 287 286 285 284
256 255 256 257 259 262 267 270 271 272 273 276 278 280 280 280 280 281 283 284 286 287 287 288 289 289 290 291 291 291 291 292 292 292 292 292 292 292 291 291 291 291 291 290 289 288 288 287 286
253 254 255 259 264 267 269 269 271 273 276 279 281 281 280 280 281 282 283 284 285 286 287 288 289 290 290 291 292 292 292 292 292 292 292 292 292 292 292 293 292 292 292 291 291 291 290 289 289
Height
5890 5890 5890 5890 5890 5889 5888 5888 5887 5886 5885 5884 5883 5882 5882 5881 5882 5883 5880 5878 5878 5877 5876 5876 5876 5875 5875 5875 5874 5874 5874 5874 5875 5875 5875 5875 5876 5876 5877 5877 5877 5878 5878 5878 5878 5878 5878 5878 5878
5890 5890 5891 5891 5890 5890 5889 5888 5887 5886 5886 5885 5884 5883 5882 5881 5881 5880 5879 5878 5878 5877 5877 5877 5876 5876 5876 5875 5875 5875 5875 5875 5875 5875 5875 5875 5875 5875 5875 5876 5876 5876 5876 5876 5876 5876 5876 5876 5877
5890 5890 5891 5891 5890 5890 5889 5888 5887 5886 5886 5885 5884 5883 5883 5882 5881 5880 5879 5878 5878 5878 5877 5877 5877 5876 5876 5876 5876 5875 5875 5875 5875 5875 5875 5874 5874 5874 5874 5875 5875 5875 5875 5875 5875 5875 5875 5875 5875
5891 5891 5891 5891 5890 5889 5889 5888 5887 5886 5885 5885 5884 5883 5882 5882 5881 5880 5879 5879 5878 5878 5877 5877 5877 5877 5876 5876 5876 5875 5875 5875 5875 5875 5874 5874 5874 5874 5874 5874 5874 5873 5873 5873 5873 5873 5873 5873 5873
5890 5891 5891 5890 5889 5888 5888 5887 5886 5886 5885 5884 5883 5882 5882 5881 5880 5880 5879 5879 5878 5877 5877 5877 5876 5876 5876 5875 5875 5875 5875 5874 5874 5874 5873 5873 5873 5873 5873 5872 5872 5872 5872 5872 5871 5871 5871 5871 5871
5891 5890 5890 5889 5888 5887 5887 5886 5885 5885 5884 5883 5882 5882 5881 5880 5879 5879 5878 5878 5877 5877 5876 5876 5875 5875 5875 5874 5874 5874 5873 5873 5873 5873 5872 5872 5872 5871 5871 5871 5871 5870 5870 5870 5870 5869 5869 5869 5868
5890 5889 5888 5888 5887 5886 5885 5884 5884 5883 5883 5882 5881 5880 5880 5879 5878 5877 5877 5876 5876 5875 5875 5874 5874 5873 5873 5873 5872 5872 5872 5871 5871 5871 5871 5870 5870 5869 5869 5869 5868 5868 5868 5868 5867 5867 5867 5866 5866
5887 5888 5886 5886 5885 5884 5883 5882 5882 5881 5881 5881 5880 5879 5878 5878 5876 5876 5875 5875 5874 5874 5873 5872 5872 5872 5871 5871 5870 5870 5870 5869 5869 5869 5868 5868 5867 5867 5867 5866 5866 5865 5865 5864 5864 5864 5863 5863 5862
5885 5886 5884 5883 5882 5882 5881 5880 5879 5879 5879 5878 5878 5877 5876 5875 5874 5874 5873 5873 5872 5872 5871 5870 5870 5869 5869 5868 5868 5868 5867 5867 5866 5866 5866 5865 5864 5864 5864 5863 5863 5862 5862 5861 5860 5859 5859 5858 5858
5883 5882 5881 5880 5879 5878 5877 5877 5876 5876 5876 5876 5875 5874 5873 5873 5872 5871 5871 5870 5870 5869 5869 5868 5867 5867 5866 5866 5865 5865 5865 5864 5864 5863 5863 5862 5861 5861 5860 5860 5859 5858 5858 5857 5856 5855 5854 5853 5852
5879 5878 5877 5876 5875 5874 5874 5873 5872 5872 5872 5872 5872 5871 5870 5870 5869 5868 5868 5867 5866 5866 5865 5865 5864 5864 5863 5863 5862 5862 5861 5861 5860 5860 5859 5858 5858 5857 5856 5855 5855 5854 5853 5852 5851 5850 5849 5848 5847
5875 5874 5873 5872 5871 5870 5869 5869 5869 5869 5868 5868 5867 5867 5867 5866 5865 5865 5864 5863 5862 5862 5861 5861 5860 5860 5860 5859 5859 5858 5857 5857 5856 5855 5855 5854 5853 5852 5851 5850 5850 5849 5848 5847 5846 5845 5844 5843 5842
5870 5869 5868 5867 5866 5865 5865 5865 5865 5864 5864 5863 5863 5862 5862 5862 5861 5860 5860 5859 5858 5857 5857 5857 5856 5856 5855 5855 5854 5854 5853 5852 5851 5850 5850 5849 5848 5847 5846 5844 5843 5843 5842 5841 5840 5839 5838 5837 5835
5864 5863 5863 5862 5861 5861 5860 5860 5860 5860 5859 5859 5858 5858 5857 5856 5856 5855 5855 5854 5853 5853 5852 5852 5851 5851 5850 5850 5849 5848 5848 5847 5846 5845 5844 5843 5841 5840 5839 5838 5837 5836 5835 5834 5833 5832 5830 5829 5828
5858 5858 5857 5856 5855 5855 5855 5855 5854 5854 5854 5853 5853 5852 5851 5851 5851 5850 5850 5849 5848 5848 5847 5847 5846 5846 5845 5844 5843 5843 5842 5841 5840 5839 5838 5836 5835 5834 5832 5831 5829 5828 5827 5826 5824 5823 5822 5821 5819
5851 5851 5851 5850 5849 5849 5850 5849 5848 5848 5848 5847 5847 5846 5846 5845 5845 5845 5844 5844 5843 5842 5842 5841 5841 5840 5839 5838 5837 5836 5835 5834 5833 5832 5831 5830 5828 5826 5825 5823 5821 5820 5818 5817 5815 5814 5812 5811 5810
5844 5844 5844 5844 5843 5842 5842 5842 5841 5841 5841 5841 5840 5840 5839 5839 5839 5839 5838 5838 5837 5836 5836 5835 5835 5834 5833 5832 5831 5830 5829 5827 5826 5825 5823 5822 5820 5818 5816 5815 5813 5811 5809 5807 5805 5804 5802 5800 5799
5836 5837 5838 5837 5836 5835 5835 5835 5834 5834 5835 5834 5834 5833 5833 5832 5832 5832 5831 5831 5830 5830 5829 5829 5828 5827 5826 5825 5824 5822 5821 5819 5818 5816 5814 5813 5811 5809 5807 5805 5803 5800 5798 5796 5794 5792 5790 5788 5787
5829 5830 5830 5830 5828 5827 5827 5827 5827 5827 5827 5827 5826 5826 5826 5825 5825 5825 5824 5824 5823 5823 5822 5822 5821 5820 5819 5817 5816 5814 5813 5811 5809 5807 5805 5803 5800 5798 5796 5793 5791 5789 5786 5784 5781 5779 5777 5775 5773
5821 5821 5822 5821 5819 5818 5818 5819 5820 5819 5819 5819 5818 5818 5818 5818 5818 5818 5817 5817 5816 5815 5814 5814 5813 5812 5810 5809 5807 5806 5804 5801 5799 5797 5794 5792 5789 5786 5783 5781 5778 5775 5773 5770 5767 5765 5762 5760 5758
5812 5813 5813 5811 5810 5809 5809 5810 5813 5812 5811 5810 5810 5810 5810 5810 5810 5810 5810 5809 5808 5807 5806 5805 5804 5803 5802 5800 5798 5796 5794 5791 5789 5786 5783 5780 5777 5774 5771 5767 5764 5761 5758 5755 5752 5749 5746 5744 5742
5802 5804 5802 5801 5800 5799 5800 5798 5804 5804 5802 5802 5802 5802 5802 5803 5802 5802 5802 5801 5800 5799 5798 5797 5795 5793 5792 5790 5788 5786 5783 5780 5777 5774 5771 5768 5764 5761 5757 5754 5750 5746 5743 5739 5736 5733 5730 5727 5724
5792 5793 5792 5791 5790 5788 5789 5790 5793 5795 5794 5793 5794 5794 5794 5794 5794 5793 5793 5792 5791 5790 5788 5787 5785 5783 5781 5779 5776 5774 5771 5768 5764 5761 5758 5754 5751 5747 5743 5739 5735 5731 5727 5723 5720 5716 5713 5710 5707
5782 5782 5781 5779 5778 5777 5781 5780 5780 5785 5785 5784 5785 5785 5785 5785 5785 5784 5783 5782 5781 5779 5778 5776 5774 5772 5770 5767 5764 5761 5758 5754 5751 5747 5743 5739 5735 5731 5727 5722 5718 5714 5710 5705 5702 5698 5694 5691 5687
5771 5771 5769 5767 5767 5768 5770 5769 5771 5774 5775 5776 5776 5776 5775 5775 5775 5774 5773 5771 5770 5768 5766 5764 5762 5759 5756 5753 5750 5747 5744 5740 5736 5732 5727 5723 5718 5714 5709 5705 5700 5696 5691 5686 5682 5678 5674 5670 5667
5758 5759 5759 5758 5757 5758 5758 5758 5762 5763 5764 5765 5766 5766 5766 5766 5765 5763 5762 5760 5758 5755 5753 5751 5748 5746 5742 5739 5735 5731 5727 5723 5719 5714 5710 5705 5700 5695 5690 5685 5680 5675 5671 5666 5661 5657 5652 5648 5644
5745 5746 5749 5748 5746 5746 5746 5749 5752 5753 5754 5754 5754 5754 5755 5754 5753 5751 5749 5746 5744 5742 5739 5737 5734 5730 5727 5723 5719 5715 5710 5706 5701 5696 5691 5686 5681 5675 5670 5665 5660 5655 5650 5645 5640 5635 5630 5625 5621
5735 5736 5736 5735 5735 5735 5736 5738 5741 5742 5742 5742 5742 5742 5742 5741 5739 5737 5734 5732 5730 5727 5725 5722 5718 5715 5711 5707 5703 5698 5693 5688 5684 5678 5673 5667 5661 5655 5650 5644 5639 5633 5628 5623 5618 5612 5607 5602 5597
5724 5724 5724 5725 5725 5726 5727 5731 5730 5729 5730 5731 5731 5730 5729 5727 5725 5723 5720 5718 5715 5713 5710 5706 5703 5700 5695 5691 5686 5681 5676 5671 5665 5660 5654 5648 5642 5635 5629 5623 5617 5611 5606 5600 5595 5589 5584 5578 5573
5710 5712 5714 5715 5716 5717 5716 5719 5716 5717 5717 5718 5718 5717 5715 5713 5711 5708 5706 5703 5700 5697 5694 5691 5687 5683 5679 5674 5669 5663 5657 5652 5646 5640 5634 5628 5621 5615 5608 5602 5595 5589 5583 5578 5572 5566 5560 5554 5548